This demonstration page uses our WeatherBlox Daily Observations layout. Learn more.

Left ArrowRight Arrow

40.92501, -98.34201

Hourly Observations for May 18, 2020

Temp ( °F °C ) Dew Point ( °F °C ) Humidity (%) Winds ( mph kmh ) Pressure ( in mb ) Visibility ( mi km ) Precip ( " mm )
12:53 am 00:53 Clear 50 10 45 7.2 83 83 NW 9 15 30.04 1017 10 16 0.00 0.00
1:53 am 01:53 Clear 47 8.3 43 6.1 86 86 NNW 7 11 30.04 1017 10 16 0.00 0.00
2:39 am 02:39 Mostly Cloudy 52 11.1 46 7.8 80 80 NNW 10 17 30.03 1017 10 16 0.00 0.00
2:53 am 02:53 Cloudy 52 11.1 46 7.8 80 80 NNW 12 19 30.04 1017 10 16 0.00 0.00
3:53 am 03:53 Cloudy 52 11.1 45 7.2 77 77 N 17 28 30.04 1017 10 16 0.00 0.00
4:37 am 04:37 Cloudy 51 10.6 45 7.2 80 80 N 14 22 30.04 1017 10 16 0.00 0.00
4:53 am 04:53 Cloudy 51 10.6 44 6.7 77 77 N 14 22 30.05 1018 10 16 0.00 0.00
5:53 am 05:53 Cloudy 51 10.6 44 6.7 77 77 N 13 20 30.06 1018 10 16 0.00 0.00
6:27 am 06:27 Cloudy 51 10.6 44 6.7 77 77 N 10 17 30.05 1018 10 16 0.00 0.00
6:53 am 06:53 Cloudy 51 10.6 44 6.7 77 77 N 15 24 30.05 1018 10 16 0.00 0.00
7:53 am 07:53 Cloudy 53 11.7 44 6.7 72 72 N 15 24 30.06 1018 10 16 0.00 0.00
8:53 am 08:53 Cloudy 54 12.2 45 7.2 72 72 NNE 16 26 30.07 1018 10 16 0.00 0.00
9:53 am 09:53 Cloudy 56 13.3 45 7.2 67 67 N 14 22 30.08 1019 10 16 0.00 0.00
10:53 am 10:53 Cloudy 59 15 45 7.2 60 60 N 10 17 30.07 1018 10 16 0.00 0.00
11:31 am 11:31 Partly Cloudy 61 16.1 46 7.8 58 58 NNE 13 20 30.02 1016 10 16 0.00 0.00
11:53 am 11:53 Sunny 63 17.2 46 7.8 54 54 NNW 12 19 30.05 1018 10 16 0.00 0.00
12:53 pm 12:53 Sunny 66 18.9 46 7.8 49 49 N 7 11 30.04 1017 10 16 0.00 0.00
1:53 pm 13:53 Sunny 69 20.6 46 7.8 44 44 N 12 19 30.02 1017 10 16 0.00 0.00
2:53 pm 14:53 Sunny 71 21.7 46 7.8 41 41 N 9 15 29.99 1016 10 16 0.00 0.00
3:53 pm 15:53 Sunny 73 22.8 47 8.3 40 40 N 12 19 29.96 1015 10 16 0.00 0.00
4:53 pm 16:53 Sunny 73 22.8 46 7.8 38 38 NNE 12 19 29.95 1014 10 16 0.00 0.00
5:53 pm 17:53 Sunny 73 22.8 46 7.8 38 38 ENE 9 15 29.94 1014 10 16 0.00 0.00
6:53 pm 18:53 Sunny 72 22.2 46 7.8 40 40 NNE 10 17 29.94 1014 10 16 0.00 0.00
7:53 pm 19:53 Sunny 69 20.6 48 8.9 47 47 NE 18 30 29.96 1014 9 14 0.00 0.00
8:53 pm 20:53 Clear 63 17.2 48 8.9 58 58 ENE 12 19 29.98 1015 9 14 0.00 0.00
9:53 pm 21:53 Clear 58 14.4 46 7.8 65 65 E 14 22 30.01 1016 10 16 0.00 0.00
10:53 pm 22:53 Clear 55 12.8 46 7.8 72 72 E 10 17 30.04 1017 10 16 0.00 0.00
11:53 pm 23:53 Clear 53 11.7 45 7.2 74 74 E 6 9 30.03 1017 10 16 0.00 0.00

Powered by AerisWeather